Regional Weather Roundup
Issued by NWS Lake Charles, LA

Home | Current Version | Previous Version | Text Only | Print | Product List | Glossary On
Versions: 1 2 3 4 5 6 7 8 9 10 11 12 13 14 15 16 17 18 19 20 21 22 23 24 25 26 27
000
ASUS44 KLCH 251810
RWRLCH
REGIONAL WEATHER ROUNDUP
NATIONAL WEATHER SERVICE LAKE CHARLES LA
100 PM CDT MON JUL 25 2016

Note: "fair" indicates few or no clouds below 12,000 feet with no
significant weather and/or obstructions to visibility.


ACROSS SOUTHEAST TEXAS

CITY           SKY/WX    TMP DP  RH WIND       PRES   REMARKS
BEAUMONT       TSTM      78  77  96 VRB3      29.96R
BEAUMONT CITY  FAIR      88  73  61 N7        29.94F
ORANGE         TSTM      77  72  83 S14G25    29.96R
JASPER           N/A     89  73  59 N9        29.97F
$$

ACROSS CENTRAL LOUISIANA

CITY           SKY/WX    TMP DP  RH WIND       PRES   REMARKS
LEESVILLE      CLOUDY    89  75  62 VRB7      29.94F
FULLERTON      FAIR      87  78  74 VRB3      29.93F HX 100
ALEXANDRIA INT MOSUNNY   92  75  57 VRB5      29.93F HX 103
ESLER FIELD    SUNNY     92  76  59 NE7       29.95F HX 104
DERIDDER       FAIR      89  74  60 N9        29.96F
OAKDALE        PTCLDY    90  77  64 NE7       29.94F HX 102
OPELOUSAS      MOCLDY    91  77  62 E9        29.94F HX 104
$$

ACROSS SOUTHWEST AND SOUTH CENTRAL LOUISIANA

CITY           SKY/WX    TMP DP  RH WIND       PRES   REMARKS
SULPHUR          N/A     82  71  70 W13       29.96R THUNDER
LAKE CHARLES   PTSUNNY   91  75  59 E10G17    29.94S HX 101
CHENNAULT INT  PTSUNNY   91  75  59 NE8       29.93F THUNDER HX 102
CAMERON PHI    FOG       77  73  88 CALM      29.97R VSB 1/2
DEQUINCY       RAIN      81  74  78 E5        29.94F
JENNINGS       FAIR      90  79  70 NE9       29.94F THUNDER HX 105
LAFAYETTE      MOSUNNY   90  76  63 NE8       29.94F HX 101
NEW IBERIA     MOSUNNY   91  75  59 NE8       29.95F HX 101
ABBEVILLE      FAIR      89  78  69 NE3       29.95S HX 102
PATTERSON      MOSUNNY   88  78  72 NE10G16   29.94F HX 101
SALT POINT       N/A     87  77  72 VRB5      29.92F
$$

SELECTED SITES ACROSS THE REGION

CITY           SKY/WX    TMP DP  RH WIND       PRES   REMARKS
HOUSTON BUSH   LGT RAIN  92  72  51 CALM      29.93F
HOUSTON HOBBY  MOSUNNY   96  71  44 N3        29.91F HX 103
GALVESTON      TSTM      78  75  90 SW9       29.96R
COLLEGE STAT   SUNNY     94  74  52 VRB5      29.94F HX 104
CONROE         MOSUNNY   95  71  45 N9        29.94F HX 102
HUNTSVILLE     SUNNY     92  72  51 MISG      29.95F
LUFKIN         MOSUNNY   91  75  59 N8        29.95F HX 101
SHREVEPORT     CLOUDY    91  75  59 VRB5      29.97F HX 101
MONROE         PTSUNNY   90  77  65 NE8       29.99F HX 103
NATCHEZ MS     MOSUNNY   90  73  58 SE6       29.98F
BATON ROUGE    PTSUNNY   91  73  55 E10       29.95F
N.O. INTL ARPT CLOUDY    87  79  76 E5        29.95F HX 101
SLIDELL        PTSUNNY   88  76  67 E5        29.94F
$$

MARINE REPORTS

STATION/POSITION TIME  SKY/WX   TEMP    WIND        PRES    VSBY
                                AIR SEA DIR/SP/G
                 (UTC)          (F)     (DEG/KT/KT) (MB)    (MI)
BUOY 30 S HIGH I 1750            82 87   40/  8/ 10 1014.4F
WVE H/P(F/S)=  1/ 5

SEA RIM ST PARK  1800            78     110/  4/  6 1015.5R
PORT ARTHUR      1700               89  180/ 10/ 13 1014.5S
SABINE PASS N    1700            81 90  340/ 10/ 18 1016.2R
TEXAS POINT      NOT AVBL
CALCASIEU PASS   1700            83 89  150/  5/  9 1013.8F
LK CHARLES BEACH 1700            87 89              1014.6F
MARSH ISLAND     1700            80                   N/A
FRESH WATER LOCK 1700            75 88  260/  6/  9 1015.9F
AMERADA PASS     1700            87 86  330/  2/  6 1014.3F
$$




USA.gov is the U.S. government's official web portal to all federal, state and local government web resources and services.